Вернуться в каталог

STARLINK-34480

АктивенСвязьVLEO
NORAD 64427·PAYLOAD·🇺🇸 United States

Запущен Jun 17, 2025 с Vandenberg Space Force Base

Loading…

Ближайшие Пролёты (ближайшие 24 часа)

TLE

СвежийSource: CelesTrak SupGP

Эпоха: Sep 14, 2026, 20:32 UTC

1 64427C 25129R   26257.85604167 -.00028021  00000+0 -97542-3 0  2572
2 64427  69.9997 315.8152 0003199 272.1853 127.4049 15.29571667    16

Отслеживайте STARLINK-34480 в реальном времени с AllMySat

Download on the App Store